Flag for U.S.A. Weather past 2 weeks in Odessa, Texas, U.S.A.

Now
76 °F

Sunny.


Feels Like: 78 °F
Forecast: 61 / 82 °F
Wind: 12 mph from Southwest

Location: Odessa-Schlemeyer Field

Current Time: Mar 31, 2015 at 1:56:54 PM

Latest Report: Mar 31, 2015 at 12:53 PM


Visibility: 10 mi

Pressure: 29.91 "Hg

Humidity: 47%

Dew point: 54 °F

Location of OdessaLocation

Historic Weather in Odessa — Graph

°F

Odessa temperature yesterday

Maximum temperature yesterday: 78 °F (at 3:53 PM)
Minimum temperature yesterday: 51 °F (at 6:53 AM)
Average temperature yesterday: 65 °F

Past Weeks' High & Low Weather Summary

 TemperatureHumidityPressure
High90 °F (Mar 29, 1:53 PM)96% (Mar 20, 2:53 AM)30.27 "Hg (Mar 20, 2:53 AM)
Low40 °F (Mar 27, 6:53 AM)10% (Mar 25, 4:53 PM)29.73 "Hg (Mar 25, 3:53 PM)
Average61 °F57%30.00 "Hg
* Reported Mar 16 11:53 AM — Mar 31 11:53 AM, Odessa, Weather by CustomWeather, © 2015

Note: Actual official high and low records may vary slightly from our data, if they occured in-between our weather recording intervals... More about our weather records

Advertising

Odessa weather history for previous 24 hours

 ConditionsComfort  
Time TempWeatherWind HumidityBarometerVisibility
11:53 AM
Tue, Mar 31
74 °FSunny.12 mph56%29.92 "Hg10 mi
10:53 AM71 °FSunny.9 mph61%29.93 "Hg10 mi
9:53 AM67 °FSunny.6 mph73%29.92 "Hg10 mi
8:53 AM64 °FSunny.8 mph78%29.91 "Hg9 mi
7:53 AM62 °FClear.12 mph83%29.90 "Hg9 mi
6:53 AM63 °FClear.10 mph78%29.89 "Hg10 mi
5:53 AM63 °FClear.9 mph78%29.89 "Hg10 mi
4:53 AM64 °FClear.13 mph75%29.90 "Hg10 mi
3:53 AM63 °FClear.10 mph78%29.91 "Hg10 mi
2:53 AM62 °FClear.7 mph78%29.93 "Hg10 mi
1:53 AM63 °FClear.8 mph78%29.95 "Hg10 mi
12:53 AM66 °FClear.10 mph68%29.95 "Hg10 mi
11:53 PM
Mon, Mar 30
69 °FClear.12 mph61%29.97 "Hg10 mi
10:53 PM71 °FClear.13 mph55%29.97 "Hg10 mi
9:53 PM74 °FClear.14 mph45%29.98 "Hg10 mi
8:53 PM73 °FSunny.No wind48%29.97 "Hg10 mi
7:53 PM76 °FSunny.6 mph43%29.96 "Hg10 mi
6:53 PM78 °FSunny.8 mph40%29.96 "Hg10 mi
5:53 PM78 °FSunny.14 mph40%29.97 "Hg10 mi
4:53 PM78 °FSunny.9 mph39%30.00 "Hg10 mi
3:53 PM78 °FSunny.7 mph39%30.03 "Hg10 mi
2:53 PM75 °FSunny.6 mph45%30.06 "Hg10 mi
1:53 PM72 °FSunny.7 mph48%30.10 "Hg10 mi
Weather by CustomWeather, © 2015

See weather overviewHow to use our weather pages